This is the latest recevied weather packets stored in our database for station/object CT1EDG-13. If no packets are shown the sender has not sent any weather packets the latest 10 day(s).
| Time | Temp. | Humidity | Pressure | Rain* | Wind** | Luminosity | Snow |
|---|---|---|---|---|---|---|---|
| 1788533023 | 27.22° C | 89% | 1011.1 hPa | 0 mm | - | - | - |
| 1788532424 | 26.67° C | 89% | 1011.1 hPa | 0 mm | - | - | - |
| 1788532423 | 26.67° C | 89% | 1011.1 hPa | 0 mm | - | - | - |
| 1788531824 | 27.78° C | 87% | 1011 hPa | 0 mm | - | - | - |
| 1788531823 | 27.78° C | 87% | 1011 hPa | 0 mm | - | - | - |
| 1788531222 | 29.44° C | 82% | 1010.8 hPa | 0 mm | - | - | - |
| 1788531221 | 29.44° C | 82% | 1010.8 hPa | 0 mm | - | - | - |
| 1788530644 | 30.56° C | 76% | 1010.4 hPa | 0 mm | - | - | - |
| 1788530644 | 30.56° C | 76% | 1010.4 hPa | 0 mm | - | - | - |
| 1788530021 | 29.44° C | 81% | 1010.1 hPa | 0 mm | - | - | - |
| 1788530020 | 29.44° C | 81% | 1010.1 hPa | 0 mm | - | - | - |
| 1788529422 | 31.11° C | 72% | 1010 hPa | 0 mm | - | - | - |
| 1788529420 | 31.11° C | 72% | 1010 hPa | 0 mm | - | - | - |
| 1788528820 | 30.56° C | 73% | 1009.9 hPa | 0 mm | - | - | - |
| 1788528819 | 30.56° C | 73% | 1009.9 hPa | 0 mm | - | - | - |
| 1788528220 | 30.56° C | 80% | 1010.2 hPa | 0 mm | - | - | - |
| 1788528219 | 30.56° C | 80% | 1010.2 hPa | 0 mm | - | - | - |
| 1788527619 | 29.44° C | 82% | 1010.7 hPa | 0 mm | - | - | - |
| 1788527618 | 29.44° C | 82% | 1010.7 hPa | 0 mm | - | - | - |
| 1788527019 | 28.89° C | 84% | 1010.2 hPa | 0 mm | - | - | - |
| 1788527018 | 28.89° C | 84% | 1010.2 hPa | 0 mm | - | - | - |
| 1788526420 | 28.89° C | 85% | 1010.6 hPa | 0 mm | - | - | - |
| 1788526418 | 28.89° C | 85% | 1010.6 hPa | 0 mm | - | - | - |
| 1788525820 | 27.78° C | 90% | 1010.9 hPa | 0 mm | - | - | - |
| 1788525818 | 27.78° C | 90% | 1010.9 hPa | 0 mm | - | - | - |
* Rain latest hour (hover to see other rain measurements)
** Current wind speed in m/s (hover to see current wind gust speed)